[[{"header":{"parameterUnit":"m.s-1","parameterCategory":1,"la1":30.2991,"la2":30.254,"lo1":-89.0895,"lo2":-89.0444,"dy":0.0017,"dx":0.0017,"nx":28,"ny":28,"refTime":"2024-07-08T21:00:00:Z","depth":0,"parameterNumber":2,"parameterNumberName":"U-component_of_WINDS"},"data":[0,0,0,0,0,0,0,0,0,0,0,0,0,0,0,0,0,0,0,0,0,0,0,0,0,0,0,0,0,0,0,0,0,0,0,0,0,0,0,0,0,0,0,0,0,0,0,0,0,0,0,0,0,0,0,0,0,0,-2.0001,-2.0,0,-1.9983,-1.9982,-1.9982,-1.9951,-1.9951,-1.995,-1.995,-1.9932,-1.9932,-1.9932,0,0,0,0,0,0,0,0,0,0,0,0,0,-2.001,-2.001,-2.0001,-2.0,-2.0,-1.9983,-1.9982,-1.9982,-1.9951,-1.9951,-1.995,-1.9949,-1.9932,-1.9932,-1.9932,0,0,0,0,0,0,0,0,0,0,0,0,0,-2.0,-2.001,-2.0001,-1.9983,-1.9981,-1.9983,-1.9982,-1.9982,-1.9952,-1.9951,-1.995,-1.9949,-1.9932,-1.9932,-1.9932,-1.995,0,0,-1.9933,-1.9933,0,0,0,0,0,0,0,0,-2.0001,-2.0,-1.9986,-1.9984,-1.9982,-1.9968,-1.9979,-1.9971,-1.9952,-1.9963,-1.995,-1.9949,-1.9945,-1.9944,-1.9942,-1.9949,-1.9949,-1.9933,-1.9933,-1.9933,-1.9933,0,0,0,0,0,0,0,-2.0001,-2.0,-1.9994,-1.9985,-1.9983,-1.9976,-1.9974,-1.9977,-1.9959,-1.9962,-1.9959,-1.9958,-1.9944,-1.9942,-1.9942,-1.9948,-1.9933,-1.9933,-1.9933,-1.9933,-1.9969,-1.997,0,0,0,0,0,0,-2.0005,-2.0001,-1.9994,-1.9993,-1.9989,-1.9976,-1.9974,-1.9974,-1.9959,-1.9956,-1.9958,-1.9956,-1.9943,-1.9942,-1.9941,-1.9961,-1.9933,-1.9933,-1.9933,-1.9969,-1.997,-1.9971,0,0,0,0,0,0,-2.0005,-2.0004,-1.9995,-1.9996,-1.9995,-1.9977,-1.9977,-1.9974,-1.9972,-1.9956,-1.9953,-1.996,-1.9942,-1.9941,-1.9948,-1.996,-1.9933,-1.9933,-1.9967,-1.9969,-1.997,-2.0002,0,0,0,0,0,0,-2.0005,-2.0004,-2.0011,-1.9997,-1.9995,-2.0002,-1.9978,-1.9974,-1.9972,-1.997,-1.9957,-1.9954,-1.9941,-1.9948,-1.9948,-1.996,-1.9933,-1.9966,-1.9968,-1.997,-2.0,-2.0004,-2.0008,0,0,0,0,0,-2.0006,-2.0021,-2.0011,-2.0011,-2.0002,-2.0003,-2.0002,-1.9986,-1.9974,-1.998,-1.997,-1.9955,-1.9959,-1.9949,-1.9949,-1.9961,-1.9965,-1.9968,-1.997,-1.9998,-2.0003,-2.0008,0,0,0,0,0,0,-2.0037,-2.0019,-2.0008,-2.0019,-2.0013,-1.9998,-2.0005,-1.9992,-1.9989,-1.9987,-1.9968,-1.9965,-1.9975,-1.9969,-1.9958,-1.9978,-1.996,-1.9962,-1.9982,-1.9987,-1.9991,-1.9992,-1.9933,0,0,0,0,0,-2.0046,-2.0047,-2.0031,-2.0042,-2.004,-2.0023,-2.0023,-2.0011,-2.0004,-2.0001,-1.9991,-1.9985,-1.9985,-1.9985,-1.9984,-1.9999,-1.9996,-2.0007,-2.0011,-2.0014,-2.0017,-2.0024,-2.0029,-1.9977,-1.9977,-1.9977,0,0,-2.0063,-2.0053,-2.0055,-2.0048,-2.0042,-2.0045,-2.0021,-2.0025,-2.0026,-2.0002,-2.0008,-2.0001,-1.9992,-2.0003,-2.0008,-1.9998,-2.003,-2.0017,-2.002,-2.002,-2.0026,-2.0031,-2.0036,-1.9979,-1.9978,-1.9978,0,0,-2.0096,-2.0088,-2.0097,-2.0091,-2.0081,-2.007,-2.0072,-2.0059,-2.0053,-2.0059,-2.0041,-2.0042,-2.0042,-2.0037,-2.0035,-2.0065,-2.0052,-2.0066,-2.0088,-2.0095,-2.0099,-2.0102,-2.0113,-2.0118,-2.0068,-2.0068,-2.0068,0,-2.0118,-2.0121,-2.0103,-2.0107,-2.0105,-2.0082,-2.0091,-2.0087,-2.0078,-2.0077,-2.0066,-2.0066,-2.0059,-2.0068,-2.0076,-2.0074,-2.0076,-2.0067,-2.01,-2.0103,-2.0106,-2.0116,-2.0121,-2.007,-2.0069,-2.0069,-2.0069,0,-2.0149,-2.0151,-2.016,-2.0151,-2.015,-2.0156,-2.014,-2.014,-2.0129,-2.0119,-2.0125,-2.0116,-2.0113,-2.0114,-2.0103,-2.0122,-2.0116,-2.0103,-2.0085,-2.0113,-2.0122,-2.0126,-2.0072,-2.0071,-2.0071,-2.007,0,0,-2.0202,-2.0183,-2.0187,-2.0182,-2.017,-2.0172,-2.0177,-2.0174,-2.0175,-2.0169,-2.0174,-2.0174,-2.0162,-2.0159,-2.0147,-2.0153,-2.0178,-2.0139,-2.0139,-2.0147,-2.0199,-2.021,-2.0214,-2.0169,-2.017,-2.017,-2.02,0,-2.0233,-2.0241,-2.0225,-2.0238,-2.0239,-2.0218,-2.0223,-2.0216,-2.0207,-2.0207,-2.0197,-2.0198,-2.0181,-2.0179,-2.0184,-2.0174,-2.0189,-2.0172,-2.0173,-2.0174,-2.0176,-2.0219,-2.023,-2.0259,-2.0203,-2.0204,-2.0204,0,-2.027,-2.0265,-2.0278,-2.0265,-2.0265,-2.027,-2.0265,-2.0266,-2.0257,-2.025,-2.0247,-2.0233,-2.0238,-2.022,-2.0226,-2.0215,-2.0215,-2.021,-2.0211,-2.0211,-2.0191,-2.0221,-2.0268,-2.0272,-2.021,-2.021,-2.0209,0,-2.0308,-2.0305,-2.0312,-2.0309,-2.0294,-2.0298,-2.0292,-2.0282,-2.0281,-2.0277,-2.0276,-2.0273,-2.0271,-2.0269,-2.0255,-2.0243,-2.0263,-2.0244,-2.0258,-2.0258,-2.0264,-2.0263,-2.0312,-2.0263,-2.0262,-2.0262,-2.0262,0,-2.0344,-2.0353,-2.0329,-2.0334,-2.0343,-2.0324,-2.0333,-2.0325,-2.0317,-2.032,-2.0301,-2.0304,-2.0284,-2.0285,-2.0273,-2.028,-2.028,-2.0274,-2.0271,-2.0276,-2.0277,-2.0276,-2.0274,-2.0263,-2.0263,-2.0263,-2.0263,0,-2.0388,-2.0373,-2.0379,-2.0364,-2.036,-2.0367,-2.0354,-2.0358,-2.0347,-2.0351,-2.0351,-2.0334,-2.0334,-2.0319,-2.0316,-2.0308,-2.0321,-2.0314,-2.0324,-2.0322,-2.0336,-2.0335,-2.0386,-2.0392,-2.0339,-2.0339,-2.034,0,-2.0413,-2.0419,-2.0404,-2.0404,-2.0399,-2.0399,-2.0398,-2.0379,-2.0379,-2.0369,-2.0374,-2.0373,-2.037,-2.0371,-2.0359,-2.0357,-2.035,-2.0368,-2.035,-2.0355,-2.0351,-2.0351,-2.0352,-2.0372,-2.0373,-2.0373,-2.0374,0,-2.0458,-2.045,-2.0448,-2.0444,-2.0442,-2.0438,-2.0433,-2.0434,-2.0414,-2.0414,-2.0414,-2.0412,-2.0409,-2.0407,-2.0402,-2.0396,-2.0382,-2.0379,-2.0383,-2.0388,-2.0394,-2.0391,-2.0335,-2.0379,-2.0378,-2.0378,-2.0377,-2.0377,-2.0494,-2.0498,-2.0488,-2.0487,-2.0481,-2.0476,-2.0478,-2.0468,-2.0467,-2.0462,-2.0451,-2.0453,-2.0444,-2.0436,-2.0431,-2.0432,-2.0423,-2.0428,-2.0429,-2.0431,-2.0434,-2.0393,-2.0431,-2.0431,-2.0431,-2.0431,-2.0431,0,-2.0539,-2.0531,-2.053,-2.0522,-2.0522,-2.0507,-2.05,-2.0501,-2.0502,-2.0495,-2.0493,-2.0492,-2.049,-2.0478,-2.0475,-2.0478,-2.0472,-2.0478,-2.0478,-2.0477,-2.0442,-2.0439,-2.0484,-2.0484,-2.0484,-2.0484,-2.0483,-2.0483,-2.0562,-2.0569,-2.0559,-2.0563,-2.0555,-2.0555,-2.0553,-2.0548,-2.0543,-2.0543,-2.0541,-2.0533,-2.0523,-2.0519,-2.0517,-2.0514,-2.0514,-2.0523,-2.0517,-2.0484,-2.0479,-2.0475,-2.0472,-2.0523,-2.0523,-2.0552,-2.0553,-2.0553]},{"header":{"parameterUnit":"m.s-1","parameterCategory":1,"la1":30.2991,"la2":30.254,"lo1":-89.0895,"lo2":-89.0444,"dy":0.0017,"dx":0.0017,"nx":28,"ny":28,"refTime":"2024-07-08T21:00:00:Z","depth":0,"parameterNumber":3,"parameterNumberName":"V-component_of_WINDS"},"data":[0,0,0,0,0,0,0,0,0,0,0,0,0,0,0,0,0,0,0,0,0,0,0,0,0,0,0,0,0,0,0,0,0,0,0,0,0,0,0,0,0,0,0,0,0,0,0,0,0,0,0,0,0,0,0,0,0,0,6.538,6.5381,0,6.544,6.5441,6.5442,6.5364,6.5362,6.5359,6.5356,6.5412,6.5416,6.542,0,0,0,0,0,0,0,0,0,0,0,0,0,6.5191,6.5195,6.538,6.5381,6.5382,6.544,6.5441,6.5442,6.5365,6.5361,6.5358,6.5355,6.5411,6.5416,6.5421,0,0,0,0,0,0,0,0,0,0,0,0,0,6.5264,6.5196,6.538,6.535,6.5348,6.544,6.5441,6.5442,6.5366,6.5361,6.5357,6.5353,6.5409,6.5415,6.5421,6.5544,0,0,6.544,6.5443,0,0,0,0,0,0,0,0,6.526,6.5271,6.5354,6.5352,6.535,6.5391,6.5395,6.5476,6.5367,6.5359,6.5356,6.5351,6.5408,6.5414,6.5435,6.5546,6.5549,6.5441,6.5445,6.5447,6.5449,0,0,0,0,0,0,0,6.5255,6.5268,6.5404,6.5355,6.5353,6.5332,6.5337,6.541,6.5406,6.5359,6.5354,6.5362,6.5406,6.5429,6.5435,6.5549,6.5441,6.5446,6.545,6.5452,6.5762,6.5766,0,0,0,0,0,0,6.5254,6.5264,6.5402,6.5405,6.5294,6.5339,6.5345,6.5382,6.5405,6.5405,6.5366,6.5358,6.542,6.5428,6.5437,6.558,6.5447,6.5453,6.5457,6.5757,6.5763,6.5767,0,0,0,0,0,0,6.5251,6.5268,6.5399,6.5334,6.5349,6.5346,6.5388,6.5385,6.5408,6.541,6.5408,6.539,6.5417,6.5428,6.5517,6.558,6.5456,6.5461,6.5752,6.5759,6.5765,6.5867,0,0,0,0,0,0,6.5246,6.5267,6.5315,6.5335,6.5353,6.5481,6.5392,6.539,6.5419,6.541,6.5432,6.5432,6.5415,6.5509,6.5524,6.5587,6.5466,6.5746,6.5755,6.5763,6.5858,6.5877,6.5892,0,0,0,0,0,6.5239,6.534,6.5318,6.5335,6.5413,6.5485,6.5495,6.5475,6.5425,6.5472,6.5473,6.5431,6.5572,6.5519,6.5535,6.5601,6.5742,6.5752,6.5762,6.585,6.5873,6.5892,0,0,0,0,0,0,6.5325,6.5343,6.5317,6.5429,6.5456,6.5472,6.5531,6.5499,6.554,6.553,6.5501,6.5507,6.5602,6.561,6.5551,6.5719,6.5648,6.5662,6.571,6.5731,6.5748,6.5743,6.5471,0,0,0,0,0,6.5358,6.5417,6.5428,6.5525,6.554,6.5533,6.5564,6.5546,6.5573,6.5583,6.5591,6.5617,6.5666,6.5699,6.5745,6.5859,6.5862,6.5912,6.593,6.5944,6.5955,6.6014,6.6036,6.5801,6.5801,6.5801,0,0,6.5424,6.5441,6.548,6.5543,6.5562,6.5621,6.5543,6.561,6.5653,6.5593,6.5677,6.5684,6.571,6.5812,6.5857,6.5822,6.6021,6.5957,6.5968,6.5972,6.6027,6.6049,6.6069,6.5808,6.5806,6.5805,0,0,6.5576,6.5596,6.5678,6.5699,6.5729,6.5724,6.5744,6.5764,6.5767,6.5852,6.5807,6.5857,6.5944,6.5964,6.5985,6.6144,6.6106,6.6159,6.6248,6.6306,6.6324,6.634,6.6395,6.6415,6.6171,6.6172,6.6172,0,6.5654,6.5744,6.5723,6.5793,6.5821,6.5771,6.5852,6.5873,6.5916,6.5935,6.5896,6.6002,6.6017,6.6121,6.616,6.618,6.6199,6.6156,6.6324,6.634,6.6355,6.6406,6.6427,6.6178,6.6177,6.6176,6.6176,0,6.5838,6.5901,6.5963,6.6008,6.6043,6.6118,6.6106,6.6143,6.6122,6.6121,6.6206,6.6222,6.6269,6.6293,6.6273,6.6394,6.6371,6.6329,6.6257,6.6384,6.6431,6.6451,6.6187,6.6184,6.6182,6.6181,0,0,6.6045,6.6077,6.61,6.6119,6.6149,6.6196,6.6268,6.6315,6.6347,6.6378,6.6436,6.651,6.647,6.6495,6.6476,6.6527,6.6649,6.6477,6.6478,6.6507,6.6781,6.6812,6.6836,6.6625,6.6629,6.6632,6.6778,0,6.6195,6.6322,6.6305,6.6425,6.6481,6.6434,6.6496,6.6519,6.652,6.6565,6.6564,6.6617,6.6561,6.6576,6.6624,6.6624,6.6703,6.6613,6.6676,6.6678,6.6669,6.6861,6.6894,6.7032,6.6797,6.68,6.6803,0,6.6388,6.6427,6.6554,6.6573,6.6596,6.6653,6.6694,6.674,6.6764,6.676,6.6788,6.676,6.6829,6.6758,6.6851,6.679,6.6815,6.6819,6.6823,6.6827,6.6747,6.6868,6.7076,6.7096,6.6832,6.683,6.6828,0,6.6524,6.6609,6.6695,6.6713,6.6738,6.6778,6.679,6.6811,6.6841,6.6876,6.6894,6.6937,6.696,6.6993,6.6977,6.6927,6.7072,6.7,6.7069,6.707,6.7101,6.7099,6.7314,6.712,6.7119,6.7119,6.7119,0,6.6692,6.6771,6.6756,6.6809,6.6895,6.6873,6.6958,6.6964,6.6983,6.7034,6.6995,6.7044,6.702,6.7066,6.7053,6.7131,6.7142,6.714,6.7135,6.7142,6.7142,6.7157,6.7146,6.7125,6.7123,6.7122,6.7121,0,6.6858,6.6852,6.6942,6.6959,6.6965,6.7027,6.704,6.7089,6.7086,6.7151,6.7165,6.716,6.7212,6.7199,6.7256,6.7247,6.7345,6.7329,6.7337,6.7332,6.7402,6.7395,6.7632,6.7661,6.745,6.7452,6.7454,0,6.6966,6.7025,6.7049,6.7081,6.7097,6.7149,6.7179,6.7159,6.7192,6.7224,6.7268,6.7317,6.7355,6.744,6.744,6.7483,6.7466,6.7546,6.7472,6.7477,6.7465,6.7461,6.7466,6.7561,6.7563,6.7565,6.7567,0,6.7156,6.715,6.7196,6.724,6.7277,6.7311,6.7341,6.7369,6.7351,6.7389,6.7443,6.7472,6.753,6.7579,6.7618,6.7627,6.7594,6.759,6.7608,6.7615,6.7617,6.7615,6.7375,6.7585,6.7583,6.7581,6.7581,6.758,6.7295,6.7345,6.7369,6.742,6.7441,6.7469,6.7515,6.7518,6.7563,6.761,6.7595,6.7656,6.7677,6.7726,6.7741,6.7786,6.7756,6.7782,6.7788,6.7795,6.7803,6.7611,6.7793,6.7793,6.7792,6.7792,6.7792,0,6.7482,6.7495,6.7543,6.7586,6.7626,6.7593,6.7623,6.7658,6.7713,6.7736,6.7775,6.7835,6.7882,6.7886,6.7929,6.7964,6.795,6.7976,6.7972,6.7975,6.7828,6.7808,6.7987,6.7987,6.7987,6.7987,6.7987,6.7987,6.7584,6.7666,6.7662,6.7753,6.7765,6.7826,6.7846,6.7871,6.7889,6.7959,6.7998,6.8001,6.8015,6.8059,6.81,6.8099,6.8116,6.8148,6.8142,6.8005,6.7985,6.7967,6.7947,6.8152,6.8153,6.8284,6.8285,6.8286]}]]